Regional Weather Roundup
Issued by NWS

Home | Current Version | Previous Version | Text Only | Print | Product List | Glossary On
Versions: 1 2 3 4 5 6 7 8 9 10 11 12 13 14 15 16 17 18 19 20 21 22 23 24 25 26 27 28 29 30 31 32 33 34 35 36 37 38 39 40 41 42 43 44 45 46 47 48 49 50
000
ASCA44 KEWX 231420
RWRMX

LATIN AMERICA AND CARIBBEAN REGIONAL WEATHER ROUNDUP
NATIONAL WEATHER SERVICE AUSTIN/SAN ANTONIO TX
900 AM CDT WED JUL 23 2014

NOTE: "FAIR" INDICATED FEW OR NO CLOUDS BELOW 12,000 FEET WITH NO
SIGNIFICANT WEATHER AND/OR OBSTRUCTIONS TO VISIBILITY.

BAJA CALIFORNIA

CITY           SKY/WX    TMP DP  RH WIND       PRES   REMARKS
MEXICALI       MOSUNNY   84  50  30 W5        29.84
TIJUANA        SUNNY     64  57  77 CALM      30.02

NORTHWESTERN MEXICO

CITY           SKY/WX    TMP DP  RH WIND       PRES   REMARKS
CULIACAN       PTSUNNY   86  77  74 CALM      29.87  HX  97
DURANGO        SUNNY     64  55  72 NW5       30.32R
GUAYMAS        MOSUNNY   90  81  74 CALM      29.79  HX 108
HERMOSILLO     PTSUNNY   86  64  48 CALM      29.89
CD. JUAREZ     PTSUNNY   77  48  36 CALM      30.18
OBREGON        PTSUNNY   86  72  62 E3        29.83  HX  92

NORTHEASTERN MEXICO

CITY           SKY/WX    TMP DP  RH WIND       PRES   REMARKS
CHIHUAHUA      CLOUDY    66  64  94 CALM      30.28
MATAMOROS      SUNNY     82  79  89 SE9       30.05  HX  93
MONCLOVA         N/A    N/A N/A N/A MISG        N/A
MONTERREY      PTSUNNY   79  70  73 CALM      30.07R
NUEVO LAREDO   SUNNY     84  75  74 S7        30.04  HX  92
PIEDRAS NEGRAS MOSUNNY   86  73  66 SE7       30.07S HX  93
REYNOSA        MOSUNNY   79  73  83 S9        30.03
SALTILLO       SUNNY     75  63  64 CALM      30.28S
TORREON        MOSUNNY   77  55  47 NE7       30.17
CD. VICTORIA   MOSUNNY   79  73  83 SE6       30.05

WESTERN MEXICO

CITY           SKY/WX    TMP DP  RH WIND       PRES   REMARKS
AGUASCALIENTES SUNNY     59  50  72 N7        30.35
COLIMA         SUNNY     75  70  83 N17       30.00R
DEL BAJIO      SUNNY     66  52  59 N7        30.37R
GUADALAJARA    SUNNY     66  57  72 CALM      30.25
MANZANILLO     SUNNY     82  77  83 NE7       29.80  HX  91
MAZATLAN       MOSUNNY   81  70  69 N8        29.85R
P. VALLARTA    MOSUNNY   82  72  69 CALM      29.86R
URUAPAN        SUNNY     63  57  82 CALM      30.24R
ZACATECAS      MOSUNNY   61  45  55 CALM      30.38

CENTRAL MEXICO

CITY           SKY/WX    TMP DP  RH WIND       PRES   REMARKS
CUERNAVACA     PTSUNNY   72  55  56 CALM      30.22R
MEXICO CITY    PTSUNNY   59  50  72 NW2       30.43R
MORELIA        SUNNY     61  55  82 CALM      30.32
POZA RICA      PTSUNNY   79  73  83 NW5       30.12R
PUEBLA         MOSUNNY   55  48  76 N9        30.41S
QUERETARO      MOSUNNY   61  57  88 NE7       30.39R
S. LUIS POTOSI SUNNY     57  55  94 CALM      30.36
TAMPICO        MOSUNNY   81  77  89 W5        30.03S
TOLUCA         PTSUNNY   50  43  76 N3        30.47

SOUTHERN MEXICO

CITY           SKY/WX    TMP DP  RH WIND       PRES   REMARKS
ACAPULCO       MOSUNNY   84  77  79 NW5       29.85S HX  94
B. DE HUATULCO MOSUNNY   82  72  69 CALM      29.91
OAXACA         SUNNY     64  54  68 NE6       30.29R
P. ESCONDIDO   MOSUNNY   79  73  83 E6        30.00R
VERACRUZ       PTSUNNY   81  72  74 N3        29.99F
ZIHUATANEJO    MOSUNNY   84  73  70 CALM      29.86  HX  91

YUCATAN PENINSULA

CITY           SKY/WX    TMP DP  RH WIND       PRES   REMARKS
CAMPECHE       PTSUNNY   77  75  94 E12       30.01S
CANCUN         PTSUNNY   86  75  70 SE8       30.06R HX  95
CHETUMAL       MOSUNNY   84  75  74 E12       30.01R HX  92
CD. DEL CARMEN MOSUNNY   82  79  89 E8        29.99  HX  93
COZUMEL        PTSUNNY   79  77  94 SE3       30.06R
MERIDA         MOSUNNY   81  73  78 E8        30.04S
MINATITLAN     PTSUNNY   84  73  70 N12       29.95  HX  91
TAPACHULA      PTSUNNY   79  75  89 CALM      29.86S
TUX. GUTIERREZ PTSUNNY   73  70  88 SE5       30.01R
VILLAHERMOSA   PTSUNNY   81  75  83 NE12      29.99S

CENTRAL AMERICA

CITY           SKY/WX    TMP DP  RH WIND       PRES   REMARKS
MANAGUA        MOSUNNY   84  70  61 E18       29.83S

CARIBBEAN

CITY           SKY/WX    TMP DP  RH WIND       PRES   REMARKS
ARUBA          MOSUNNY   86  77  74 E26       29.94S HX  97
CURACAO        MOSUNNY   86  75  70 E16       29.97S HX  95
KINGSTON       MOSUNNY   88  73  62 SE22      30.00S HX  96
NASSAU         MOSUNNY   86  75  70 SE10      30.12R HX  95
SAN JUAN       MOSUNNY   88  75  66 NE15G22   30.10S HX  97
SANTO DOMINGO  MOSUNNY   86  77  74 SE12      30.06S HX  97
ST. CROIX      SUNNY     90  73  58 E21G26    30.10R HX  98
ST. KITTS      PTSUNNY   86  77  74 NE15      30.09S HX  97
ST. MAARTEN    PTSUNNY   86  73  66 E12       30.09S HX  93
ST. THOMAS     PTSUNNY   86  75  70 SE10      30.10S HX  95

$$



USA.gov is the U.S. government's official web portal to all federal, state and local government web resources and services.